This demonstration page uses our WeatherBlox Daily Observations layout. Learn more.

Left ArrowRight Arrow

39.51506, -84.39828

Hourly Observations for September 2, 2015

Temp ( °F °C ) Dew Point ( °F °C ) Humidity (%) Winds ( mph kmh ) Pressure ( in mb ) Visibility ( mi km ) Precip ( " mm )
12:15 am 00:15 Clear with Mist and Fog 69 20.8 66 19 90 90 Calm 30.09 1019 5 8.0467 0 0
12:35 am 00:35 Clear with Mist and Fog 69 20.8 66 19 90 90 Calm 30.09 1019 4 6.43736 0 0
12:55 am 00:55 Clear with Mist and Fog 69 20.8 66 19 90 90 Calm 30.09 1019 5 8.0467 0 0
1:15 am 01:15 Clear with Mist and Fog 69 20.8 66 19 90 90 Calm 30.09 1019 5 8.0467 0 0
1:35 am 01:35 Clear with Mist and Fog 69 20.8 66 19 90 90 Calm 30.09 1019 4 6.43736 0 0
1:55 am 01:55 Clear with Mist and Fog 69 20.8 66 19 90 90 Calm 30.09 1019 4 6.43736 0 0
2:15 am 02:15 Clear with Mist and Fog 69 20.8 66 19 90 90 Calm 30.09 1019 4 6.43736 0 0
2:35 am 02:35 Clear with Mist and Fog 69 20.8 66 19.1 90 90 Calm 30.09 1019 4 6.43736 0 0
2:55 am 02:55 Clear with Mist and Fog 69 20.8 66 19.1 90 90 Calm 30.09 1019 3 4.82802 0 0
3:15 am 03:15 Clear with Mist and Fog 69 20.8 67 19.2 91 91 Calm 30.09 1019 4 6.43736 0 0
3:35 am 03:35 Clear with Mist and Fog 69 20.8 67 19.2 91 91 Calm 30.09 1019 2 3.21868 0 0
3:55 am 03:55 Clear with Mist and Fog 69 20.8 67 19.3 91 91 Calm 30.09 1019 2.5 4.02335 0 0
4:15 am 04:15 Mostly Cloudy with Mist and Fog 69 20.8 67 19.3 91 91 Calm 30.09 1019 1.25 2.011675 0 0
4:35 am 04:35 Clear with Mist and Fog 69 20.8 67 19.3 91 91 Calm 30.09 1019 2.5 4.02335 0 0
4:55 am 04:55 Clear with Mist and Fog 69 20.7 67 19.2 91 91 Calm 30.09 1019 3 4.82802 0 0
5:15 am 05:15 Clear with Mist and Fog 69 20.8 67 19.3 91 91 Calm 30.09 1019 3 4.82802 0 0
5:35 am 05:35 Mostly Cloudy with Mist and Fog 68 20 65 18.5 91 91 Calm 30.09 1019 1.25 2.011675 0 0
5:55 am 05:55 Mostly Cloudy with Mist and Fog 67 19.6 65 18.1 91 91 Calm 30.09 1019 1.25 2.011675 0 0
6:15 am 06:15 Mostly Cloudy with Fog 67 19.5 64 18 91 91 Calm 30.09 1019 0.5 0.80467 0 0
6:35 am 06:35 Mostly Cloudy with Mist and Fog 67 19.5 64 18 91 91 Calm 30.09 1019 1.5 2.41401 0 0
6:55 am 06:55 Mostly Cloudy with Mist and Fog 67 19.5 64 18 91 91 Calm 30.09 1019 1.25 2.011675 0 0
7:15 am 07:15 Mostly Cloudy with Fog 65 18.1 62 16.6 91 91 Calm 30.12 1020 0.5 0.80467 0 0
7:35 am 07:35 Mostly Cloudy with Fog 68 20 65 18.5 91 91 Calm 30.12 1020 0.5 0.80467 0 0
7:55 am 07:55 Sunny with Mist and Fog 69 20.5 66 19 91 91 Calm 30.12 1020 2.5 4.02335 0 0
8:15 am 08:15 Sunny with Mist and Fog 69 20.8 67 19.4 92 92 Calm 30.12 1020 2.5 4.02335 0 0
8:35 am 08:35 Sunny with Mist and Fog 69 20.8 67 19.4 92 92 Calm 30.12 1020 3 4.82802 0 0
8:55 am 08:55 Sunny with Mist and Fog 69 20.8 67 19.3 91 91 Calm 30.12 1020 4 6.43736 0 0
9:15 am 09:15 Sunny with Mist and Fog 74 23.6 71 21.6 89 89 Calm 30.12 1020 2.5 4.02335 0 0
9:35 am 09:35 Hazy 74 23.6 70 21 85 85 SW 6 9 30.12 1020 4 6.43736 0 0
9:55 am 09:55 Mostly Cloudy with Haze 75 24 70 21.1 84 84 SW 5 7 30.12 1020 5 8.0467 0 0
10:15 am 10:15 Cloudy 77 25.1 72 22.1 83 83 SW 5 7 30.12 1020 7 11.26538 0 0
10:35 am 10:35 Partly Cloudy 77 25.1 71 21.5 81 81 SSW 6 9 30.12 1020 7 11.26538 0 0
10:55 am 10:55 Sunny 80 26.5 72 22.1 77 77 SW 6 9 30.12 1020 10 16.0934 0 0
11:15 am 11:15 Partly Cloudy 80 26.7 71 21.7 74 74 SSW 5 7 30.12 1020 10 16.0934 0 0
11:35 am 11:35 Partly Cloudy 82 28 72 22.2 71 71 SSW 6 9 30.12 1020 10 16.0934 0 0
11:55 am 11:55 Sunny 84 28.7 73 22.6 70 70 W 5 7 30.12 1020 10 16.0934 0 0
12:15 pm 12:15 Sunny 85 29.5 72 22.4 66 66 WNW 7 11 30.06 1018 10 16.0934 0 0
12:35 pm 12:35 Sunny 85 29.7 71 21.9 63 63 W 6 9 30.06 1018 10 16.0934 0 0
12:55 pm 12:55 Partly Cloudy 87 30.5 73 22.8 63 63 SW 7 11 30.06 1018 10 16.0934 0 0
1:15 pm 13:15 Mostly Cloudy 90 32.1 74 23.6 61 61 WSW 7 11 30.06 1018 10 16.0934 0 0
1:35 pm 13:35 Partly Cloudy 87 30.8 72 22.4 61 61 W 6 9 30.03 1017 10 16.0934 0 0
1:55 pm 13:55 Partly Cloudy 90 32.1 72 22 55 55 W 7 11 30.03 1017 10 16.0934 0 0
2:15 pm 14:15 Partly Cloudy 90 32.1 72 22.2 56 56 W 5 7 30.03 1017 10 16.0934 0 0
2:35 pm 14:35 Partly Cloudy 90 32.1 71 21.7 54 54 SW 6 9 30.03 1017 10 16.0934 0 0
2:55 pm 14:55 Partly Cloudy 90 32.1 70 21.2 53 53 W 9 15 30 1016 10 16.0934 0 0
3:15 pm 15:15 Partly Cloudy 90 32.1 70 21 52 52 W 7 11 30 1016 10 16.0934 0 0
3:35 pm 15:35 Sunny 90 32.1 70 21 52 52 W 6 9 30 1016 10 16.0934 0 0
3:55 pm 15:55 Partly Cloudy 90 32.1 69 20.3 50 50 W 5 7 30 1016 10 16.0934 0 0
4:15 pm 16:15 Partly Cloudy 90 32.1 69 20.3 50 50 W 7 11 30 1016 10 16.0934 0 0
4:35 pm 16:35 Partly Cloudy 90 32.1 68 20 49 49 Calm 30 1016 10 16.0934 0 0
4:55 pm 16:55 Partly Cloudy 84 29 66 18.9 54 54 ESE 6 9 30 1016 10 16.0934 0 0
5:15 pm 17:15 Partly Cloudy 84 28.7 67 19.4 57 57 NE 5 7 29.97 1015 10 16.0934 0 0
5:35 pm 17:35 Partly Cloudy 87 30.6 71 21.4 58 58 N 3 6 29.97 1015 10 16.0934 0 0
5:55 pm 17:55 Partly Cloudy 87 30.7 70 21.1 57 57 Calm 29.97 1015 10 16.0934 0 0
6:15 pm 18:15 Sunny 88 31.1 70 21.1 55 55 Calm 29.97 1015 10 16.0934 0 0
6:35 pm 18:35 Sunny 90 32.1 71 21.6 54 54 Calm 29.94 1014 10 16.0934 0 0
6:55 pm 18:55 Sunny 88 31.3 72 22.3 59 59 W 3 6 29.97 1015 10 16.0934 0 0
7:15 pm 19:15 Sunny 85 29.6 69 20.6 58 58 S 7 11 29.97 1015 10 16.0934 0 0
7:35 pm 19:35 Sunny 82 28 68 20.1 62 62 S 3 6 30 1016 10 16.0934 0 0
7:55 pm 19:55 Sunny 82 27.5 68 20.2 64 64 SSW 3 6 30 1016 10 16.0934 0 0
8:15 pm 20:15 Clear 81 27.1 68 19.8 64 64 S 5 7 30 1016 10 16.0934 0 0
8:35 pm 20:35 Clear 80 26.5 67 19.4 65 65 S 3 6 30 1016 10 16.0934 0 0
8:55 pm 20:55 Clear 80 26.5 67 19.7 66 66 Calm 30 1016 10 16.0934 0 0
9:15 pm 21:15 Clear 79 26.2 68 19.9 68 68 Calm 30 1016 10 16.0934 0 0
9:35 pm 21:35 Clear 77 25.1 68 20.2 74 74 Calm 30 1016 10 16.0934 0 0
9:55 pm 21:55 Clear 74 23.6 68 20.1 81 81 Calm 30.03 1017 10 16.0934 0 0
10:15 pm 22:15 Clear 74 23.6 69 20.7 84 84 Calm 30.03 1017 10 16.0934 0 0
10:35 pm 22:35 Clear 74 23.6 70 21.1 86 86 Calm 30.03 1017 7 11.26538 0 0
10:55 pm 22:55 Clear 74 23.6 71 21.5 88 88 Calm 30.03 1017 7 11.26538 0 0
11:15 pm 23:15 Clear with Mist and Fog 72 22.3 68 20.2 88 88 Calm 30.03 1017 5 8.0467 0 0
11:35 pm 23:35 Clear 72 22.3 69 20.5 90 90 Calm 30.03 1017 7 11.26538 0 0
11:55 pm 23:55 Clear with Mist and Fog 71 21.6 67 19.7 89 89 Calm 30.03 1017 5 8.0467 0 0

Powered by AerisWeather